• In Russia
  • List of Countries
  • For 7 days
  • Water Temperature
  • Satellite Maps
  • Weather Map
  • Weather Widgets
  • user-avatar
    Login

    Hourly Weather Kaprun

    Today, 25 July, Tuesday

    Time Temperature Precipitation Wind Pressure Humidity
    00:00 +2°C° 0.1 mm 2 mps 592 mmHg 96%
    01:00 +2°C° 0.1 mm 2 mps 592 mmHg 96%
    02:00 +2°C° 0.1 mm 2 mps 592 mmHg 96%
    03:00 +1°C° 0.1 mm 2 mps 592 mmHg 95%
    04:00 +1°C° 0.1 mm 2 mps 591 mmHg 95%
    05:00 +2°C° 0.2 mm 2 mps 592 mmHg 93%
    06:00 +3°C° 0.2 mm 2 mps 592 mmHg 91%
    07:00 +4°C° 0.2 mm 2 mps 593 mmHg 90%
    08:00 +5°C° 0.2 mm 2 mps 593 mmHg 84%
    09:00 +6°C° 0.2 mm 2 mps 594 mmHg 78%
    10:00 +8°C° 0.2 mm 2 mps 594 mmHg 72%
    11:00 +8°C° 0.6 mm 2 mps 594 mmHg 73%
    12:00 +8°C° 0.6 mm 2 mps 594 mmHg 73%
    13:00 +8°C° 0.6 mm 2 mps 594 mmHg 73%
    14:00 +8°C° 1 mm 2 mps 594 mmHg 76%
    15:00 +8°C° 1 mm 2 mps 594 mmHg 79%
    16:00 +7°C° 1 mm 2 mps 594 mmHg 82%
    17:00 +7°C° 0.5 mm 2 mps 593 mmHg 86%
    18:00 +7°C° 0.5 mm 1 mps 593 mmHg 89%
    19:00 +6°C° 0.5 mm 1 mps 593 mmHg 92%
    20:00 +5°C° 0.1 mm 1 mps 593 mmHg 93%
    21:00 +4°C° 0.1 mm 1 mps 592 mmHg 95%
    22:00 +3°C° 0.1 mm 1 mps 592 mmHg 96%
    23:00 +3°C° 0.1 mm 1 mps 592 mmHg 95%

    Tomorrow, 26 July, Wednesday

    Time Temperature Precipitation Wind Pressure Humidity
    00:00 +3°C° 0.1 mm 1 mps 592 mmHg 94%
    01:00 +3°C° 0.1 mm 1 mps 592 mmHg 94%
    02:00 +3°C° 0.2 mm 1 mps 591 mmHg 93%
    03:00 +3°C° 0.2 mm 1 mps 591 mmHg 93%
    04:00 +3°C° 0.2 mm 1 mps 591 mmHg 93%
    05:00 +4°C° 0.4 mm 1 mps 591 mmHg 92%
    06:00 +4°C° 0.4 mm 1 mps 591 mmHg 92%
    07:00 +5°C° 0.4 mm 1 mps 592 mmHg 91%
    08:00 +6°C° 1.1 mm 1 mps 592 mmHg 88%
    09:00 +6°C° 1.1 mm 1 mps 593 mmHg 86%
    10:00 +6°C° 1.1 mm 2 mps 593 mmHg 84%
    11:00 +6°C° 0.8 mm 2 mps 594 mmHg 82%
    12:00 +6°C° 0.8 mm 2 mps 594 mmHg 81%
    13:00 +7°C° 0.8 mm 2 mps 594 mmHg 80%
    14:00 +7°C° 0.2 mm 2 mps 594 mmHg 77%
    15:00 +8°C° 0.2 mm 2 mps 595 mmHg 74%
    16:00 +8°C° 0.2 mm 2 mps 595 mmHg 71%
    17:00 +7°C° 0.3 mm 2 mps 595 mmHg 75%
    18:00 +6°C° 0.3 mm 2 mps 595 mmHg 79%
    19:00 +6°C° 0.3 mm 2 mps 594 mmHg 83%
    20:00 +5°C° 0.3 mm 2 mps 594 mmHg 85%
    21:00 +4°C° 0.3 mm 2 mps 594 mmHg 88%
    22:00 +4°C° 0.3 mm 2 mps 595 mmHg 90%
    23:00 +4°C° 0.3 mm 2 mps 595 mmHg 90%

    Day after tomorrow, 27 July, Thursday

    Time Temperature Precipitation Wind Pressure Humidity
    00:00 +3°C° 0.3 mm 2 mps 595 mmHg 90%
    01:00 +3°C° 0.3 mm 2 mps 595 mmHg 90%
    02:00 +3°C° 0.1 mm 2 mps 594 mmHg 91%
    03:00 +2°C° 0.1 mm 2 mps 594 mmHg 92%
    04:00 +2°C° 0.1 mm 2 mps 594 mmHg 92%
    05:00 +3°C° 0 mm 2 mps 595 mmHg 88%
    06:00 +5°C° 0 mm 2 mps 595 mmHg 83%
    07:00 +6°C° 0 mm 2 mps 596 mmHg 79%
    08:00 +9°C° 0 mm 1 mps 597 mmHg 67%
    09:00 +11°C° 0 mm 1 mps 598 mmHg 56%
    10:00 +13°C° 0 mm 1 mps 598 mmHg 45%
    11:00 +14°C° 0.1 mm 1 mps 598 mmHg 47%
    12:00 +14°C° 0.1 mm 1 mps 598 mmHg 49%
    13:00 +14°C° 0.1 mm 1 mps 598 mmHg 51%
    14:00 +14°C° 0 mm 1 mps 598 mmHg 54%
    15:00 +13°C° 0 mm 1 mps 598 mmHg 58%
    16:00 +13°C° 0 mm 1 mps 598 mmHg 62%
    17:00 +12°C° 0.1 mm 1 mps 598 mmHg 69%
    18:00 +11°C° 0.1 mm 1 mps 597 mmHg 75%
    19:00 +10°C° 0.1 mm 1 mps 597 mmHg 82%
    20:00 +9°C° 0.2 mm 1 mps 597 mmHg 85%
    21:00 +8°C° 0.2 mm 1 mps 596 mmHg 88%
    22:00 +7°C° 0.2 mm 1 mps 596 mmHg 91%
    23:00 +7°C° 0.2 mm 1 mps 596 mmHg 91%

    28 July, Friday

    Time Temperature Precipitation Wind Pressure Humidity
    00:00 +7°C° 0.2 mm 1 mps 597 mmHg 91%
    01:00 +7°C° 0.2 mm 1 mps 597 mmHg 91%
    02:00 +7°C° 0.5 mm 1 mps 597 mmHg 92%
    03:00 +7°C° 0.5 mm 1 mps 596 mmHg 93%
    04:00 +7°C° 0.5 mm 1 mps 596 mmHg 94%
    05:00 +8°C° 1 mm 1 mps 597 mmHg 94%
    06:00 +8°C° 1 mm 1 mps 597 mmHg 94%
    07:00 +8°C° 1 mm 1 mps 597 mmHg 93%
    08:00 +9°C° 0.5 mm 1 mps 598 mmHg 90%
    09:00 +9°C° 0.5 mm 0 mps 599 mmHg 86%
    10:00 +10°C° 0.5 mm 0 mps 599 mmHg 82%
    11:00 +13°C° 0.3 mm 1 mps 600 mmHg 78%
    12:00 +14°C° 0.3 mm 1 mps 600 mmHg 73%
    13:00 +16°C° 0.3 mm 1 mps 601 mmHg 69%
    14:00 +15°C° 0.6 mm 1 mps 601 mmHg 72%
    15:00 +15°C° 0.6 mm 1 mps 601 mmHg 75%
    16:00 +15°C° 0.6 mm 2 mps 601 mmHg 79%
    17:00 +13°C° 0.3 mm 2 mps 601 mmHg 83%
    18:00 +12°C° 0.3 mm 1 mps 600 mmHg 88%
    19:00 +11°C° 0.3 mm 1 mps 600 mmHg 93%
    20:00 +11°C° 0.1 mm 1 mps 600 mmHg 95%
    21:00 +10°C° 0.1 mm 1 mps 601 mmHg 96%
    22:00 +9°C° 0.1 mm 1 mps 601 mmHg 97%
    23:00 +9°C° 0 mm 1 mps 601 mmHg 97%

    29 July, Saturday

    Time Temperature Precipitation Wind Pressure Humidity
    00:00 +8°C° 0 mm 1 mps 601 mmHg 97%
    01:00 +8°C° 0 mm 1 mps 601 mmHg 97%
    02:00 +7°C° 0 mm 0 mps 600 mmHg 97%
    03:00 +7°C° 0 mm 0 mps 600 mmHg 97%
    04:00 +6°C° 0 mm 0 mps 600 mmHg 97%
    05:00 +9°C° 0 mm 1 mps 601 mmHg 95%
    06:00 +10°C° 0 mm 1 mps 601 mmHg 93%
    07:00 +11°C° 0 mm 1 mps 602 mmHg 91%
    08:00 +13°C° 0 mm 1 mps 603 mmHg 83%
    09:00 +15°C° 0 mm 1 mps 604 mmHg 75%
    10:00 +17°C° 0 mm 2 mps 604 mmHg 67%
    11:00 +17°C° 0.1 mm 2 mps 604 mmHg 66%
    12:00 +18°C° 0.1 mm 2 mps 604 mmHg 65%
    13:00 +18°C° 0.1 mm 2 mps 604 mmHg 64%
    14:00 +18°C° 0.6 mm 2 mps 604 mmHg 67%
    15:00 +18°C° 0.6 mm 2 mps 603 mmHg 71%
    16:00 +17°C° 0.6 mm 2 mps 603 mmHg 74%
    17:00 +16°C° 1.9 mm 2 mps 603 mmHg 80%
    18:00 +15°C° 1.9 mm 2 mps 602 mmHg 86%
    19:00 +13°C° 1.9 mm 1 mps 602 mmHg 92%
    20:00 +13°C° 2.7 mm 1 mps 602 mmHg 94%
    21:00 +12°C° 2.7 mm 1 mps 602 mmHg 95%
    22:00 +11°C° 2.7 mm 1 mps 602 mmHg 97%
    23:00 +11°C° 0.8 mm 1 mps 601 mmHg 96%

    30 July, Sunday

    Time Temperature Precipitation Wind Pressure Humidity
    00:00 +11°C° 0.8 mm 1 mps 601 mmHg 95%
    01:00 +11°C° 0.8 mm 1 mps 601 mmHg 94%
    02:00 +10°C° 0.2 mm 1 mps 601 mmHg 93%
    03:00 +10°C° 0.2 mm 1 mps 600 mmHg 92%
    04:00 +10°C° 0.2 mm 1 mps 600 mmHg 91%
    05:00 +10°C° 0.4 mm 1 mps 601 mmHg 90%
    06:00 +11°C° 0.4 mm 1 mps 601 mmHg 89%
    07:00 +11°C° 0.4 mm 1 mps 602 mmHg 89%
    08:00 +12°C° 0.6 mm 1 mps 602 mmHg 87%
    09:00 +12°C° 0.6 mm 1 mps 602 mmHg 86%
    10:00 +13°C° 0.6 mm 1 mps 602 mmHg 85%
    11:00 +14°C° 0.4 mm 1 mps 603 mmHg 78%
    12:00 +15°C° 0.4 mm 0 mps 603 mmHg 72%
    13:00 +16°C° 0.4 mm 0 mps 604 mmHg 66%
    14:00 +18°C° 0.7 mm 1 mps 603 mmHg 66%
    15:00 +18°C° 0.7 mm 1 mps 603 mmHg 66%
    16:00 +18°C° 0.7 mm 1 mps 603 mmHg 66%
    17:00 +16°C° 0.6 mm 1 mps 603 mmHg 74%
    18:00 +15°C° 0.6 mm 1 mps 602 mmHg 81%
    19:00 +13°C° 0.6 mm 0 mps 602 mmHg 88%
    20:00 +13°C° 0.2 mm 1 mps 601 mmHg 90%
    21:00 +11°C° 0.2 mm 1 mps 601 mmHg 91%
    22:00 +10°C° 0.2 mm 1 mps 601 mmHg 93%
    23:00 +10°C° 0.1 mm 1 mps 601 mmHg 93%
    Show more